FENGYUN 1C DEB

Satellite information

Favourite Embed

Satellite Type and Status

DEBRISIN ORBIT

Key statistics

Satellite FENGYUN 1C DEB at a glance.

Uptime

9557

Days in orbit

Revolutions

≈ 13.9

Per day

Orbit

SSO

Sun Synchronous Orbit

Inclination

99.0

Latest

Satellite identification and parameters

Extended collection of information and parameters for FENGYUN 1C DEB.

Object identification

Identified? True

Debris? True

Object name: FENGYUN 1C DEB

International designator: 1999-025DEK

Object number (NORAD): 33650

Object ID (CCSDS): 33650

Country: PEOPLES REPUBLIC OF CHINA (PRC)

Current information (Y/N): Y

RCS size: SMALL

Orbital parameters

Period: 103.708 minutes

Inclination: 98.9792 deg

SMA: 7311.998 km

Apoapsis: 1046.512 km

Periapsis: 821.213 km

RAAN: 359.6143 deg

Eccentricy: 0.0154061

Argument of periapsis: 146.4861 deg

Mean anomaly: 214.616 deg

Mean motion: 13.88508955 rev/day

Mean motion (dot): 0.00001059 rev/day2

B* drag term: 0.00083278 1/REarth

Two-line elements (TLE)

Creation date: July 8, 2025, 2:27 a.m.

Reference frame: TEME

Reference center: EARTH

Epoch: July 7, 2025, 10:02 p.m. UTC

TLE line 0: 0 FENGYUN 1C DEB

TLE line 1: 1 33650U 99025DEK 25188.91860992 .00001059 00000-0 83278-3 0 9996

TLE line 2: 2 33650 98.9792 359.6143 0154061 146.4861 214.6160 13.88508955666180

Live tracking on map

Real-time ground track for satellite FENGYUN 1C DEB.

In-orbit conjunctions

A list of the most updated potential collisions computed for object FENGYUN 1C DEB.

Target Orbit TCA Probability of collision Miss distance Type
OSCAR 25 SSO 2025-03-30 09:01:16 0.0001145641 575.0 (m) PAYLOAD
COSMOS 1275 DEB LEO 2024-08-16 00:50:44 0.0003366865 83.0 (m) DEBRIS

Associated space launch

Chinese polar orbiting meteorological satellite

FENGYUN 1C DEB was lifted into orbit during the mission ‘Long March 4B | Feng Yun 1C’, on board a Long March 4B space rocket.

The launch took place on May 10, 1999, 1:33 a.m. from Launch Complex 7.

For more information about the launch, click the button.

Launch to space Long March 4B | Feng Yun 1C
Long March 4B | Feng Yun 1C

Agency: N/A

Status: Launch Successful

Launch date: May 10, 1999, 1:33 a.m. UTC

Rocket: Long March 4B

Launch pad: Launch Complex 7

Location: Taiyuan Satellite Launch Center, People's Republic of China

...

Latest news about this satellite

There are no fresh news available about this satellite. Check back as we update our databases every day.


Newsletter sign-up

Weekly statistics, charts and insights to help you stay on top of the space industry.